Theta_e
332 337 340 340 341 343 344 343 344 342 342 343 343 344 343 342 341 341 340 341 341 340 340 341 340 340 340 340 340 339 339 339 339 339 338 339 339 339 340 340 340 340 340 341 337 334 334 332 332 332 333 333 334 334 335 336 337 337 338 339 339 338 336 335 337 337 338 339 340 339 336 334 333 332 332 335 334 332 334 336 337 339 339 339 338
331 338 340 340 341 343 344 343 343 341 342 343 343 343 343 342 341 341 340 341 341 340 340 341 340 339 340 340 339 339 339 339 339 339 338 337 338 338 338 339 339 340 340 341 337 332 331 330 327 326 327 328 330 332 334 335 336 336 337 338 338 338 336 334 334 334 336 337 338 336 334 334 332 328 325 327 328 327 329 333 337 339 340 340 340
330 339 339 339 341 341 343 343 343 341 342 343 343 343 343 342 341 340 340 341 341 340 340 340 340 339 339 339 339 339 339 339 339 339 338 336 335 336 337 338 338 339 340 340 337 331 328 326 324 323 323 323 325 327 328 330 332 334 335 336 337 338 336 334 333 333 333 334 334 332 330 332 330 324 320 321 321 322 323 328 335 339 339 340 341
329 337 339 340 340 341 342 342 342 341 342 342 343 343 343 342 341 340 340 340 340 341 340 340 339 339 339 338 339 339 339 339 338 338 337 336 335 335 337 338 337 339 340 340 338 334 331 330 329 326 325 323 323 323 324 324 325 327 330 333 335 336 337 335 335 334 335 333 331 328 329 331 329 325 323 324 324 323 323 324 329 335 339 340 340
326 335 338 340 340 341 342 342 342 341 341 341 342 343 343 342 341 341 340 339 340 340 340 339 339 339 338 338 339 338 338 338 338 336 335 335 334 334 336 338 338 338 339 339 338 337 336 335 333 329 329 326 322 323 324 323 322 322 324 327 331 334 335 335 335 335 336 334 331 330 333 334 334 332 331 331 330 328 328 327 325 327 333 338 340
325 332 336 339 339 340 341 343 342 342 341 340 342 342 343 342 341 341 340 340 339 339 339 339 339 338 338 338 338 338 338 337 336 335 335 333 332 334 336 337 337 338 339 338 337 337 336 335 333 330 331 329 326 325 325 324 324 323 322 322 325 331 334 334 334 333 335 335 333 334 336 336 336 337 337 336 334 331 331 330 328 325 326 331 334
325 329 335 338 339 338 341 342 341 342 341 339 341 342 342 342 342 341 340 340 340 339 339 339 339 338 337 337 337 338 337 336 335 335 334 332 331 333 335 337 336 337 338 336 336 336 335 334 333 330 326 325 326 327 327 326 325 326 324 320 319 325 331 333 335 332 333 335 334 334 335 336 336 337 339 337 335 333 332 330 329 329 328 326 326
326 328 332 336 338 338 340 342 341 342 340 340 340 342 342 341 342 342 341 340 340 340 340 339 338 337 337 337 337 338 337 336 335 335 333 331 330 331 333 335 336 336 336 337 336 335 334 332 332 328 321 317 319 320 324 327 326 325 324 319 313 318 326 329 333 332 332 335 334 333 333 333 335 336 338 337 335 332 331 330 328 330 329 327 325
326 328 330 333 336 337 339 341 341 341 340 340 340 341 340 340 342 342 341 340 340 340 340 340 338 336 336 338 337 337 337 334 334 333 332 332 330 330 332 334 335 336 336 336 336 334 333 331 331 326 319 321 321 319 316 321 327 326 320 311 303 309 321 325 328 330 332 334 334 333 332 331 332 336 337 336 333 331 329 330 329 330 330 328 328
328 329 330 331 333 335 338 340 341 340 340 340 339 340 340 340 340 341 341 340 340 340 339 339 339 337 335 336 336 336 335 333 334 333 332 332 330 329 331 333 335 335 336 336 335 333 332 331 331 327 324 326 326 325 315 311 321 319 310 303 300 305 317 324 324 327 331 334 334 333 332 330 331 335 336 335 333 331 330 330 331 332 332 331 331
328 331 332 331 331 333 336 339 340 340 340 339 339 339 339 340 340 340 340 340 340 340 339 338 339 338 334 335 335 334 334 334 335 334 333 332 330 329 329 333 334 335 336 335 334 333 332 331 331 329 328 329 326 326 317 303 307 306 301 301 300 304 314 322 324 325 330 331 332 332 332 329 331 334 335 335 333 332 331 329 330 333 334 333 333
329 331 333 333 330 331 334 337 338 339 340 339 339 338 339 339 340 340 339 339 339 338 339 338 338 337 335 335 336 334 333 335 337 335 334 331 330 331 330 333 334 335 335 334 333 332 332 331 331 330 328 328 322 322 315 299 299 300 300 301 300 303 311 319 323 324 326 328 330 331 330 330 330 332 334 334 334 333 331 328 329 333 334 333 333
329 332 334 335 332 332 332 335 337 339 339 339 339 338 338 339 340 339 339 339 337 338 338 338 337 337 335 335 336 334 333 335 336 336 335 331 329 332 332 332 333 334 333 332 331 330 330 330 330 329 327 325 318 314 308 299 299 300 299 300 300 304 310 317 322 323 324 326 329 330 329 330 330 330 333 333 333 333 331 330 329 331 332 332 333
331 332 334 336 335 334 332 334 336 338 338 338 338 338 338 338 339 339 338 338 337 337 338 337 336 336 335 335 335 334 333 334 336 336 336 334 330 331 332 332 333 332 330 329 329 328 329 329 327 326 325 324 321 312 300 298 299 299 300 300 301 304 310 316 322 325 326 326 328 330 330 331 330 331 332 332 331 331 330 329 328 328 331 333 333
331 332 334 336 336 336 334 333 334 337 338 338 338 338 337 337 338 338 338 338 337 336 337 338 335 336 335 335 335 334 333 334 336 336 336 335 331 331 332 331 331 330 329 329 328 328 328 328 326 326 326 325 324 315 299 298 299 299 300 300 301 304 309 315 320 325 327 328 329 330 331 331 331 331 331 330 330 329 328 327 326 327 330 333 333
331 332 333 335 336 336 336 335 334 335 337 337 338 337 337 337 338 338 338 338 337 336 335 337 335 335 335 335 335 334 334 333 335 336 336 336 334 332 332 331 329 330 330 330 330 329 328 327 327 326 326 324 323 317 302 298 299 299 300 300 301 303 307 312 316 321 324 327 329 330 331 331 331 331 330 329 328 327 326 324 324 325 328 331 331
330 332 333 334 335 336 336 336 335 335 336 336 337 337 337 336 337 338 338 337 337 335 334 335 335 334 334 335 335 335 333 333 334 335 336 336 335 334 333 332 330 331 331 331 330 329 327 327 327 325 325 324 321 317 304 298 299 299 300 300 301 301 304 308 312 317 321 324 326 328 330 331 331 330 329 329 328 326 324 321 319 320 321 326 329
329 331 333 334 334 335 336 337 336 335 335 336 336 337 337 336 336 337 338 338 337 335 334 334 335 334 334 334 335 335 334 334 334 335 336 336 335 335 334 333 332 332 331 331 330 328 327 326 326 325 324 323 321 317 305 298 299 299 300 300 300 301 301 304 308 312 317 320 323 326 328 330 330 330 329 328 327 326 324 321 318 315 313 319 324
328 330 332 335 335 336 336 337 337 337 336 336 336 336 337 336 336 337 338 338 337 336 334 334 334 334 334 334 335 334 334 334 334 334 335 335 335 335 334 334 333 333 331 331 329 327 327 326 326 325 324 322 321 317 306 298 299 299 300 300 300 300 300 301 304 307 311 315 319 323 326 329 329 329 328 327 327 326 325 323 321 317 314 314 315
329 329 331 334 336 337 337 337 337 337 337 336 336 336 337 337 336 336 337 337 337 336 335 334 333 334 334 334 335 333 333 333 332 333 333 334 334 334 334 334 334 333 331 331 329 327 326 325 325 325 324 322 321 318 308 298 298 299 299 300 300 300 300 300 301 302 305 308 311 316 321 325 327 328 328 327 327 326 325 324 322 318 315 310 308
325 326 329 331 334 336 337 338 337 337 337 336 336 336 336 336 337 336 337 337 336 336 336 336 334 333 334 333 333 333 333 332 331 332 332 332 332 333 333 333 334 333 332 331 329 328 326 325 325 324 324 323 321 319 311 301 298 299 299 300 300 300 300 300 300 300 300 302 303 306 310 316 322 325 326 326 325 324 323 321 318 314 312 310 307
315 318 322 325 330 333 335 337 337 337 337 337 336 336 336 336 337 338 338 337 336 336 336 336 336 334 334 333 332 333 333 332 332 332 332 332 332 332 332 332 333 333 332 331 330 328 326 324 324 323 323 323 322 320 314 305 298 298 299 300 300 300 300 300 299 299 300 299 300 301 303 308 314 319 321 320 318 316 314 311 308 308 311 312 308
310 312 314 317 321 326 331 334 335 336 337 337 336 336 335 335 336 338 338 336 336 337 337 336 336 335 334 333 333 332 332 331 331 331 332 332 332 331 331 332 333 333 331 330 330 328 326 324 323 322 323 323 323 322 317 308 299 297 299 299 299 299 299 299 299 299 299 299 299 299 300 304 309 312 314 315 313 310 307 304 303 305 310 312 311
310 311 311 312 313 318 324 329 333 334 335 336 337 336 335 335 335 336 338 338 337 336 336 336 336 336 335 334 333 333 333 331 330 331 332 332 332 330 331 333 331 330 330 330 330 328 327 325 323 322 322 322 323 323 320 314 304 297 298 298 298 299 298 298 298 298 298 298 298 298 298 301 306 309 313 318 317 313 308 305 305 308 313 316 317
311 312 312 312 312 313 315 321 327 332 334 334 336 336 335 335 334 335 336 338 338 338 336 334 335 335 335 335 333 334 334 332 331 331 332 331 329 328 330 333 331 330 330 330 329 328 327 326 325 323 322 322 323 323 322 319 311 300 296 298 298 298 298 298 297 298 298 298 298 298 298 298 301 304 310 318 320 318 311 306 307 313 318 318 319
313 314 315 315 314 313 313 314 318 325 331 333 334 335 334 334 334 334 335 334 334 336 336 334 335 335 335 336 334 334 334 334 333 332 332 329 327 327 329 330 330 331 331 331 329 328 328 327 325 322 321 323 323 323 322 321 318 309 299 296 298 298 298 297 297 297 297 297 297 297 297 297 298 299 302 309 317 321 317 310 308 313 320 320 318
313 315 316 318 317 316 315 313 314 317 325 330 331 332 332 333 333 334 335 334 331 332 332 331 333 335 336 336 334 334 333 333 333 333 332 329 329 330 329 330 331 333 332 330 328 328 328 326 324 322 321 323 324 323 322 321 321 317 308 299 296 297 298 297 297 297 297 297 297 297 297 297 297 297 297 299 308 318 321 318 313 316 320 320 319
311 314 317 319 320 320 319 316 314 314 319 327 329 330 332 333 333 335 333 333 333 331 332 331 331 334 336 336 333 333 334 333 332 333 333 329 331 330 328 329 330 331 332 330 328 328 327 326 324 323 323 325 324 323 322 321 320 320 316 308 299 296 297 297 297 297 297 297 297 297 297 297 297 297 297 297 299 308 319 321 318 320 320 320 320
311 313 317 319 320 322 322 320 317 315 317 324 328 329 331 333 333 334 334 333 331 330 331 330 329 331 334 334 333 333 334 333 332 334 332 328 330 330 328 328 326 328 330 329 329 329 328 326 325 324 325 325 324 323 322 322 321 319 319 315 307 300 296 297 298 297 296 297 297 297 297 297 297 297 297 297 296 299 311 320 320 320 320 319 320
311 313 316 318 320 322 323 323 322 320 319 323 328 330 331 332 331 332 333 331 329 329 331 331 330 331 331 331 331 332 334 333 333 334 332 329 330 330 330 328 327 327 328 329 330 329 329 327 325 325 326 324 322 321 322 322 321 320 319 317 315 309 301 297 297 297 297 296 296 296 296 296 297 297 297 297 297 295 303 315 320 320 320 320 319
311 314 317 318 320 321 323 323 324 324 323 325 327 329 329 330 331 331 331 331 330 330 331 331 331 331 330 331 330 330 332 332 332 331 330 329 329 329 328 328 327 327 328 329 329 329 329 327 325 326 325 322 320 320 322 322 320 319 318 317 316 314 308 301 298 298 297 297 296 296 296 296 296 297 297 296 297 296 298 309 318 320 320 321 320
312 314 317 319 320 321 323 324 325 325 326 327 327 329 329 329 330 330 330 330 329 329 329 329 329 330 330 330 330 331 331 331 331 330 329 328 327 327 327 327 327 328 329 329 328 328 328 327 327 327 325 321 320 321 322 321 319 318 317 316 315 314 312 308 304 301 299 298 297 297 296 295 296 296 297 297 297 297 295 302 313 317 318 320 321
310 313 317 318 320 321 323 324 325 325 326 327 328 328 329 329 330 329 329 329 328 328 327 327 328 329 328 330 331 330 330 331 331 330 329 329 328 327 327 327 327 328 328 327 327 327 327 328 327 327 325 322 321 323 322 319 318 317 315 314 313 312 312 310 309 306 304 301 298 297 297 296 296 296 296 297 297 297 296 297 304 311 315 319 320
308 312 316 318 320 321 323 324 324 326 326 327 327 327 328 328 328 327 327 327 327 326 325 325 325 326 326 328 329 327 329 329 329 329 329 328 327 327 327 327 327 327 326 325 325 326 327 327 326 326 325 323 323 323 323 320 318 317 315 315 314 313 312 310 309 308 305 303 300 298 297 296 296 296 296 296 297 297 297 296 299 303 309 314 317
307 311 315 317 319 321 322 323 324 325 325 326 326 326 326 325 326 325 324 325 324 323 323 323 323 324 324 325 325 325 326 326 326 326 327 327 326 326 326 327 327 327 326 326 325 325 326 325 323 323 323 323 323 323 322 320 318 316 315 315 314 314 313 312 310 309 307 305 302 300 298 297 296 296 296 296 296 296 296 297 297 299 302 306 311
307 310 312 315 319 320 321 322 323 324 324 324 324 324 324 323 324 323 322 323 322 322 321 321 322 322 322 322 322 323 323 324 324 324 324 325 325 325 325 324 325 326 325 324 324 324 323 323 322 320 320 321 322 322 321 319 317 316 316 315 315 314 314 313 312 310 308 307 305 303 300 298 297 296 296 296 296 296 296 296 296 297 298 300 303
305 309 310 313 317 318 320 321 321 322 322 322 322 322 322 321 321 320 321 321 320 320 318 318 319 318 318 317 318 319 320 321 321 321 321 321 322 322 322 322 323 323 322 322 323 322 321 320 319 318 318 318 318 319 319 318 317 316 315 315 314 313 313 313 312 311 311 310 308 306 303 301 299 297 296 296 296 296 296 296 296 296 297 297 298
304 307 309 311 314 316 318 319 320 320 320 320 320 320 319 319 318 317 318 317 317 316 315 316 316 316 315 314 315 316 316 317 317 317 317 318 318 319 319 320 320 319 319 320 320 319 318 317 317 317 317 317 317 316 317 317 316 316 315 314 313 312 311 310 310 311 311 312 311 309 306 303 301 299 298 297 297 296 296 295 295 296 296 296 296
304 307 308 310 312 313 314 316 318 318 318 319 318 318 317 316 315 315 315 313 312 312 313 314 313 312 312 311 312 312 312 312 313 313 314 315 315 316 317 317 316 316 316 317 317 316 316 315 315 315 314 315 314 314 314 314 314 315 313 312 312 311 311 310 310 310 309 308 308 307 305 303 301 299 298 297 297 297 296 296 296 295 295 295 296
303 305 308 310 311 310 312 314 314 314 316 316 316 316 316 315 314 313 311 308 308 310 310 310 309 308 308 308 309 308 308 308 309 310 310 311 312 312 313 313 313 314 314 314 314 314 314 314 314 313 313 312 312 311 310 310 311 311 310 310 310 310 310 309 309 308 305 303 301 301 302 300 298 297 297 297 297 297 296 296 296 296 296 295 295
303 305 307 308 309 310 311 311 310 311 313 313 314 314 313 312 311 308 305 304 305 306 306 305 305 305 305 306 306 305 306 306 307 307 307 308 308 308 308 308 309 310 311 309 309 310 311 312 312 311 311 310 309 307 306 307 306 305 306 307 307 307 307 307 306 303 301 301 302 303 302 298 298 299 298 298 297 296 296 296 297 296 296 296 296
301 303 305 305 307 309 309 308 308 310 311 310 310 310 308 307 306 303 301 301 301 302 301 301 301 301 301 302 302 302 303 303 303 303 304 304 304 304 304 304 304 305 305 305 305 306 307 308 308 308 308 307 305 302 303 304 301 299 300 301 302 304 305 305 303 301 301 303 304 303 300 299 300 300 297 297 297 298 298 298 298 297 297 296 296
299 301 302 303 305 306 306 306 306 307 307 306 307 305 304 303 302 301 300 300 299 299 299 298 299 299 299 299 299 299 300 300 300 300 300 300 300 301 301 301 301 302 302 303 303 303 303 303 304 305 304 304 302 300 301 301 299 299 300 300 300 300 303 301 299 301 303 302 301 300 300 300 300 298 297 298 299 299 299 298 298 297 297 296 296
298 299 300 301 302 303 304 304 304 304 303 303 303 302 301 301 301 300 299 298 297 297 298 297 298 298 298 298 298 298 298 298 298 298 298 298 298 298 298 298 298 299 299 300 300 300 300 300 301 302 303 302 300 299 299 298 298 299 299 299 298 298 301 299 296 300 300 299 300 300 300 299 298 298 299 299 298 299 298 298 297 297 296 296 296
297 298 299 300 301 301 302 303 303 302 302 301 301 301 301 300 299 299 298 297 297 297 297 296 296 297 297 297 297 297 297 297 297 297 297 297 296 296 296 296 296 296 296 296 296 296 297 297 298 299 300 300 299 299 298 298 297 297 297 298 298 299 298 296 296 299 298 298 299 299 298 298 298 299 298 298 299 299 298 298 298 298 297 297 297
294 296 298 299 300 301 301 302 302 301 301 301 301 301 300 300 299 299 298 297 294 292 292 292 293 293 293 293 294 293 294 293 293 293 293 293 293 293 294 294 294 294 294 294 294 294 294 295 295 296 296 297 298 298 297 297 297 297 297 296 297 297 295 295 297 298 298 298 297 297 297 298 297 297 298 298 298 298 298 298 298 298 298 298 298
292 293 296 298 299 300 300 301 301 300 300 300 300 300 300 299 299 297 295 293 290 286 287 288 288 289 289 289 289 289 289 289 289 289 289 289 289 289 289 290 290 289 290 290 291 291 291 292 292 293 293 293 294 295 294 295 296 296 296 296 296 296 295 295 296 296 297 297 296 297 297 296 296 296 296 296 296 296 296 296 297 297 298 298 299
290 292 295 297 298 299 299 300 300 299 299 299 299 299 299 298 296 294 291 289 287 286 285 286 286 287 287 287 287 287 287 287 287 287 287 287 287 287 287 287 287 287 287 287 287 288 288 288 288 288 289 289 290 291 292 292 293 293 293 293 294 294 295 295 294 294 295 295 296 297 296 294 294 294 294 294 294 294 294 294 295 295 296 297 297
290 292 294 296 297 298 298 298 298 298 298 298 298 297 296 295 294 292 289 286 286 286 286 286 286 286 286 286 286 286 286 286 286 286 286 286 286 286 286 286 286 286 286 286 286 286 286 286 286 286 286 286 286 287 288 289 290 290 290 290 290 291 292 293 293 293 293 294 295 295 294 292 292 292 291 291 292 291 290 291 292 293 295 295 296
289 291 293 294 296 296 297 297 296 296 296 296 296 295 294 293 292 291 289 286 286 286 286 286 286 286 286 286 286 286 286 286 286 286 286 286 286 286 286 286 285 285 285 285 285 286 285 285 285 285 286 286 285 285 286 286 286 287 287 287 288 289 291 292 292 292 292 293 293 293 293 292 292 291 289 289 289 288 288 289 289 291 293 294 295
288 289 291 292 293 294 295 295 293 293 293 293 293 293 292 292 291 290 288 287 287 287 286 286 286 286 286 285 285 285 285 285 285 285 285 285 285 285 285 285 285 285 285 285 285 285 285 285 285 285 285 285 285 285 285 285 285 285 285 285 286 287 289 290 290 291 291 292 291 292 292 291 291 291 288 287 287 287 288 289 289 290 290 291 293
Wind_Speed
16 24 26 23 22 18 17 16 15 14 13 13 12 11 10 9 9 8 8 9 9 10 10 9 10 11 10 10 11 11 11 11 10 10 10 11 11 10 9 7 7 8 9 11 11 12 12 12 13 13 13 13 13 12 12 11 11 10 10 11 11 11 10 9 8 9 9 10 11 11 11 11 12 12 11 11 11 10 11 11 11 11 11 10 9
19 27 26 24 23 20 17 16 15 15 15 13 13 11 10 10 9 8 8 9 8 8 9 8 9 10 10 10 10 10 10 10 9 9 9 9 9 9 7 6 7 7 9 10 9 10 11 11 11 11 11 11 11 11 11 11 10 9 9 9 9 9 9 9 9 9 9 9 9 9 10 11 11 11 11 11 10 10 11 12 13 12 11 10 10
19 27 27 25 24 22 18 16 15 15 15 14 13 12 11 10 9 8 8 9 8 8 8 8 8 9 9 9 9 9 9 9 8 8 7 7 8 8 8 6 7 7 7 8 7 8 9 10 9 9 10 10 10 10 10 10 9 9 8 7 7 8 9 9 9 9 9 8 8 8 10 11 11 12 12 12 11 11 12 13 13 11 10 10 10
19 26 27 26 24 23 19 17 15 16 16 14 13 12 12 11 10 8 8 9 9 8 7 8 9 9 8 9 8 8 8 7 7 6 6 6 7 6 7 7 7 7 6 6 7 8 8 8 9 8 7 8 8 8 8 8 8 8 6 6 5 6 7 8 8 8 8 8 8 8 10 11 11 12 12 12 12 12 13 13 13 11 10 11 11
18 23 26 26 23 23 20 18 16 15 16 15 13 12 12 10 9 8 8 8 9 9 8 8 8 8 8 8 8 7 7 7 6 6 5 6 6 5 5 6 6 6 6 6 7 8 8 7 7 7 5 5 5 5 5 6 6 6 5 4 4 4 5 6 7 7 7 8 8 9 10 10 11 10 10 10 11 11 12 12 12 10 10 10 11
17 21 25 26 24 23 21 19 17 16 16 16 14 13 12 10 9 8 8 7 8 9 8 8 8 8 8 8 7 7 7 6 6 5 4 4 5 5 4 5 5 5 6 6 6 7 7 5 6 7 5 4 3 3 3 3 4 4 4 3 2 2 3 4 4 5 5 7 8 8 10 10 10 9 8 9 10 10 11 11 11 10 9 8 9
16 20 23 25 24 23 21 20 18 16 16 16 15 13 12 10 9 8 8 7 8 8 7 7 7 8 8 8 8 7 6 5 5 4 3 3 5 4 4 5 4 4 5 6 6 6 6 5 6 7 7 6 6 6 6 5 5 4 3 2 2 0 2 3 2 3 3 5 6 7 8 8 8 8 7 8 9 10 10 10 10 9 9 8 7
15 18 21 24 24 22 21 19 17 16 15 16 15 14 12 10 10 9 8 8 8 7 7 6 7 8 8 8 8 7 6 5 5 3 2 3 5 4 4 4 3 3 4 5 5 6 7 7 8 8 8 10 10 10 9 8 7 6 5 5 3 3 2 3 2 1 3 3 5 6 7 7 7 7 7 7 8 9 9 9 9 9 9 9 8
13 16 18 22 23 21 20 19 17 15 15 15 15 14 12 11 10 9 8 8 7 7 7 6 6 8 9 8 8 7 6 5 4 2 1 2 4 4 4 3 3 4 6 6 6 7 8 8 9 9 9 12 14 14 12 9 8 7 7 6 4 3 4 3 2 1 3 3 3 5 6 6 6 6 6 6 6 7 8 8 9 9 9 9 9
12 14 15 20 21 21 20 20 18 16 15 14 15 14 12 11 10 9 8 7 7 6 6 6 6 6 8 8 8 7 5 4 3 2 2 2 3 3 4 3 3 5 7 8 8 8 7 7 7 9 12 15 16 16 14 10 8 7 7 5 3 2 4 4 3 2 3 3 2 3 4 5 6 6 5 4 5 5 7 7 8 9 8 8 8
11 13 13 17 20 21 20 20 19 16 15 14 14 13 13 12 10 10 8 7 7 6 6 6 6 5 6 6 6 5 4 3 2 1 2 3 3 4 4 3 4 6 7 6 6 7 6 5 5 9 14 16 17 16 14 10 7 6 5 5 3 1 3 4 3 3 3 3 2 2 3 5 5 5 4 4 5 5 6 7 7 7 6 6 6
9 12 12 14 17 20 20 20 19 17 16 14 14 13 13 12 10 10 9 8 7 6 6 6 6 6 5 5 4 3 3 3 3 1 2 3 3 4 4 3 4 6 5 3 3 6 6 5 5 9 13 15 16 15 11 9 6 5 5 5 4 3 3 3 3 3 3 2 2 2 2 3 4 5 4 4 5 6 6 7 7 5 4 4 4
6 10 10 11 14 18 19 20 19 17 16 15 14 13 13 13 11 10 10 9 7 7 6 6 7 7 6 5 4 3 3 4 4 2 0 2 3 4 4 3 4 4 2 3 4 6 7 7 7 10 13 14 15 13 9 7 5 5 6 5 5 4 3 3 2 2 2 2 2 2 2 2 3 4 4 4 5 5 6 6 6 4 2 3 3
3 7 8 9 11 14 17 19 19 18 17 16 14 13 13 14 12 11 10 9 9 9 8 8 9 9 8 7 6 5 5 5 5 4 2 1 2 4 4 4 3 3 2 4 6 7 7 7 9 11 12 14 15 14 9 6 5 5 6 6 5 4 4 3 2 1 1 1 2 3 2 2 3 4 2 3 3 3 4 5 5 3 1 2 3
3 5 6 7 8 11 15 17 19 18 17 16 16 14 13 13 13 12 11 10 9 10 9 9 10 10 9 8 7 6 6 6 6 5 3 2 3 4 4 3 3 2 3 5 6 7 6 6 9 11 12 14 15 13 9 6 5 5 6 6 5 4 3 3 2 1 1 1 2 3 3 3 3 3 1 2 2 2 4 5 4 2 1 2 3
4 4 5 6 7 8 11 15 18 19 18 17 17 16 14 13 14 13 11 10 10 10 10 9 10 10 10 9 8 7 7 6 7 6 5 4 4 5 5 4 3 2 3 5 6 6 7 8 9 11 12 14 14 12 8 6 5 5 6 6 6 5 3 3 2 1 1 2 2 3 3 3 3 2 1 1 2 2 4 5 4 2 1 1 2
3 4 5 5 6 7 9 12 16 18 19 18 17 17 16 15 15 15 13 12 12 11 10 10 10 9 10 10 9 9 8 7 7 6 6 6 5 6 6 5 3 1 2 3 5 7 8 10 10 11 12 13 14 11 7 5 4 4 5 6 6 6 4 3 1 1 1 2 3 3 3 3 3 2 1 1 2 3 3 5 4 4 3 3 4
1 2 4 5 6 6 7 9 12 16 19 19 19 18 18 17 16 16 15 14 13 13 11 11 11 10 11 12 11 10 9 9 8 7 6 7 6 6 6 5 3 1 1 4 7 9 9 10 11 12 12 13 14 10 6 5 3 3 4 4 5 5 5 3 2 0 1 2 3 4 4 4 4 4 1 2 3 2 2 5 5 5 5 4 5
2 1 2 5 6 7 7 8 10 13 16 19 20 20 19 18 18 17 17 16 15 15 13 12 12 11 11 13 12 11 11 11 10 8 6 6 6 5 6 5 4 2 2 5 8 9 9 10 11 12 13 14 14 10 7 5 4 3 3 3 4 4 5 4 3 2 0 2 3 4 5 5 5 5 4 4 5 4 4 6 7 7 7 6 6
2 1 2 5 7 8 9 9 10 11 13 17 20 21 20 19 18 18 18 17 17 16 14 13 12 13 13 13 13 12 12 12 11 9 7 6 5 5 6 6 6 4 4 7 7 8 10 10 11 12 13 14 14 10 7 5 4 3 2 2 3 3 3 3 3 3 2 1 2 3 4 6 5 4 3 4 5 6 8 8 9 9 9 7 6
2 2 1 4 7 10 11 11 12 12 12 14 17 20 21 20 18 18 18 17 17 16 15 14 13 13 14 13 13 13 13 12 12 10 9 8 5 5 6 7 7 6 5 7 8 10 10 9 10 12 14 15 15 12 8 5 5 3 2 2 2 2 2 2 2 3 3 2 2 2 4 5 6 4 2 3 5 7 9 10 10 8 8 7 6
5 2 2 3 6 9 11 12 13 13 13 13 15 17 19 20 19 18 18 17 17 16 16 15 14 14 14 14 13 13 14 13 12 11 10 10 6 5 6 9 9 7 7 7 8 10 8 8 10 12 14 15 16 15 10 6 6 5 3 2 2 1 1 2 2 3 3 3 3 2 3 4 4 5 4 5 7 8 9 9 8 6 5 5 6
9 6 4 5 6 8 10 12 13 13 14 14 14 15 17 19 19 19 19 17 16 17 16 16 15 15 15 15 13 14 14 14 14 13 12 11 8 6 8 10 10 8 8 6 7 8 6 8 10 11 13 15 16 16 12 8 6 6 5 3 2 2 1 2 2 3 3 3 3 3 3 3 4 4 4 6 7 8 8 7 6 5 4 5 5
13 11 7 6 7 9 10 12 13 13 13 14 15 15 16 17 17 18 18 17 16 17 16 16 16 15 15 15 14 15 15 15 15 15 14 11 8 7 9 13 11 9 9 8 8 7 8 11 11 11 12 14 15 15 14 11 8 7 7 5 4 3 2 2 3 3 4 3 3 3 3 3 3 3 3 4 6 8 9 7 5 4 4 4 4
13 12 9 7 6 8 11 13 14 15 13 12 13 15 16 15 15 15 16 16 16 16 15 16 16 15 16 16 15 16 17 16 16 16 14 12 10 9 11 14 12 11 11 10 8 6 9 11 10 11 13 14 14 15 14 13 10 8 8 8 6 5 4 3 3 4 4 4 4 4 4 4 4 4 3 4 5 8 10 8 5 4 3 4 4
13 13 11 8 6 6 9 13 14 15 14 11 11 14 14 15 15 14 14 13 13 14 14 15 17 17 18 17 16 17 18 17 17 16 14 12 11 11 11 13 14 14 14 11 8 6 10 10 8 12 14 13 14 14 14 14 12 10 9 9 8 7 6 5 4 5 5 5 5 5 5 5 5 5 5 4 4 6 9 9 5 3 3 5 6
16 15 13 10 8 5 6 9 12 14 14 12 10 11 12 12 13 12 13 12 10 11 12 12 15 18 20 19 18 18 19 18 19 16 13 12 12 12 12 14 17 17 16 13 10 9 9 8 8 11 13 12 13 13 14 14 13 11 10 10 10 9 8 7 6 6 6 5 5 5 5 6 6 6 6 6 5 4 7 8 6 4 3 6 7
17 17 15 12 10 8 5 3 6 9 11 11 8 8 9 10 10 10 8 8 8 7 8 9 9 13 17 18 17 17 19 20 21 19 14 13 14 13 12 12 14 16 17 13 11 9 7 7 8 11 11 10 11 13 14 13 13 12 11 10 10 11 10 9 8 7 7 7 6 6 6 7 7 7 7 7 6 5 5 7 7 5 5 5 7
19 19 18 15 13 12 9 5 2 5 8 9 6 6 7 7 8 9 5 5 8 6 6 9 8 10 11 11 11 11 16 20 21 20 18 15 15 15 11 9 11 13 15 13 12 9 8 8 7 11 10 8 10 13 14 13 13 13 12 11 10 11 11 11 11 10 9 8 7 7 8 8 8 8 7 7 7 6 5 6 7 6 6 6 6
19 18 18 16 14 14 13 10 8 6 7 10 8 6 6 6 5 4 3 3 5 3 5 7 7 8 9 8 7 5 8 14 16 16 16 13 11 13 11 10 12 12 13 15 15 11 9 9 9 10 8 7 10 12 13 13 13 13 12 12 11 11 11 11 12 11 10 10 9 9 8 9 8 8 8 8 8 7 6 5 6 7 7 8 8
17 18 18 17 15 15 15 14 13 12 11 11 11 7 6 5 3 2 1 1 1 2 3 4 4 4 5 6 4 3 5 8 8 8 7 6 7 9 11 12 12 12 13 15 15 13 10 10 10 8 4 6 7 8 11 13 13 12 12 12 12 11 11 11 11 11 11 11 11 10 10 9 9 9 9 9 8 8 8 5 4 6 7 8 8
17 17 17 16 15 16 16 15 15 15 14 13 12 11 9 8 7 5 3 1 2 2 1 1 3 3 4 4 3 2 5 5 3 2 3 4 5 7 10 9 8 8 11 13 14 15 11 10 12 8 2 4 5 6 9 10 11 12 11 11 11 11 11 12 12 11 11 12 12 12 11 10 10 9 9 9 9 9 9 8 5 5 6 7 8
16 16 17 16 16 17 17 16 16 16 16 16 15 13 12 10 9 8 7 5 5 5 3 3 4 2 2 3 3 3 4 3 1 1 2 4 5 6 7 6 5 7 10 12 13 15 12 12 14 10 5 3 5 5 7 8 9 10 10 10 10 11 11 11 11 11 12 12 13 13 13 12 11 10 10 9 10 9 10 10 9 8 7 7 8
15 16 18 18 18 19 19 18 18 18 18 18 17 17 15 14 13 12 11 9 8 9 9 11 11 9 6 3 2 4 3 2 2 2 2 3 5 6 5 5 5 6 8 9 10 12 12 13 13 11 9 8 8 7 7 8 8 8 8 8 9 10 11 11 11 10 10 11 12 13 13 13 12 12 11 11 11 11 11 11 11 11 10 10 10
15 17 19 20 19 20 21 21 21 21 21 20 20 20 18 17 16 15 14 14 13 14 15 15 15 14 12 11 9 6 5 3 3 4 5 5 6 6 5 4 4 5 6 7 9 10 11 12 12 11 11 11 10 9 9 10 10 9 8 8 9 9 10 11 11 11 11 12 12 13 13 13 13 12 12 12 12 12 12 12 12 12 12 12 12
15 17 19 20 21 22 22 22 22 22 23 22 21 21 20 19 20 19 17 16 16 17 17 17 16 16 16 16 16 14 11 8 6 4 3 3 5 5 4 4 4 5 7 7 8 8 9 11 11 11 10 10 10 9 9 10 11 11 10 10 9 9 9 10 11 12 12 12 13 13 13 13 13 13 13 13 14 13 13 13 13 13 13 14 14
15 16 19 21 23 23 22 23 23 24 23 23 21 21 21 21 22 22 20 19 18 19 19 19 19 19 19 20 19 18 16 15 13 10 8 7 5 4 4 5 5 5 5 4 5 6 7 8 9 9 8 8 9 8 9 11 13 14 14 13 12 12 11 11 11 11 12 13 13 13 13 13 13 14 14 14 15 15 15 15 15 15 14 15 15
15 16 18 21 23 24 24 25 25 25 24 24 23 24 24 23 24 23 22 21 22 22 22 20 20 20 21 21 20 19 19 18 17 15 15 14 13 12 10 8 7 5 4 3 3 4 4 5 6 6 6 7 7 9 10 11 13 15 15 15 15 14 13 12 12 12 12 13 13 13 13 12 12 13 14 14 15 15 16 16 17 16 16 16 16
16 16 18 20 22 24 25 26 25 25 24 24 24 24 24 24 24 23 23 24 23 23 22 20 20 21 21 20 19 19 19 18 18 17 17 17 16 16 15 13 11 9 8 7 6 5 5 5 5 6 6 6 6 8 9 10 11 12 14 14 14 14 14 14 13 13 12 12 13 12 11 11 12 12 13 14 15 15 16 17 18 18 18 18 18
16 17 18 20 21 23 24 25 26 25 25 25 24 23 23 23 23 22 23 25 23 22 21 20 20 20 20 19 18 18 18 18 18 17 17 17 17 17 16 15 13 10 10 10 10 8 7 7 7 7 7 7 8 9 9 10 10 11 13 13 13 14 14 13 12 11 11 11 12 12 12 12 12 12 13 13 14 15 16 17 18 19 20 20 20
18 18 18 19 20 20 22 23 24 23 23 22 22 22 22 22 23 24 25 26 24 22 22 21 21 21 19 18 18 18 17 16 16 16 17 17 18 17 16 16 14 12 12 13 12 10 9 8 8 8 8 8 10 10 11 10 10 12 14 15 14 12 11 11 9 7 8 12 14 16 15 13 14 15 15 14 14 15 16 16 17 17 18 19 19
19 20 20 20 20 20 21 21 21 20 20 20 20 22 23 23 25 27 27 27 26 25 25 25 23 22 21 20 20 19 18 18 18 17 17 17 17 18 18 18 17 16 15 14 14 13 12 11 10 9 9 10 11 12 12 10 10 12 12 11 11 11 12 9 5 7 13 17 16 13 12 13 17 17 15 15 17 19 20 20 19 18 18 18 18
18 20 20 20 21 21 22 22 21 21 21 21 21 23 25 25 26 27 27 27 28 27 27 27 24 24 24 23 23 22 21 21 21 20 20 19 19 19 19 18 18 17 16 16 16 16 16 15 14 12 11 11 11 12 13 12 12 12 7 4 4 7 8 5 8 19 19 14 11 12 14 15 16 17 18 20 21 22 22 22 21 20 19 19 19
17 19 20 20 21 22 22 23 23 23 23 23 23 25 26 26 27 27 27 29 29 27 26 27 26 26 26 25 25 24 23 23 22 21 21 21 20 20 19 19 19 18 18 18 19 19 19 18 17 15 13 13 13 14 14 13 14 12 5 3 2 3 3 5 16 21 11 10 15 16 13 13 16 19 21 22 23 24 23 23 22 22 21 20 20
16 17 18 19 20 21 22 23 23 24 25 25 25 25 26 27 28 28 28 28 28 26 27 28 27 27 27 27 26 24 23 24 23 23 23 22 22 22 21 21 21 21 21 21 21 21 20 19 19 17 16 15 14 14 14 13 15 15 9 3 2 2 2 8 14 8 5 16 17 9 9 16 19 20 21 24 26 26 25 25 25 24 23 23 22
15 16 17 18 19 19 20 21 22 23 23 23 23 23 24 25 26 27 27 29 30 28 29 30 29 30 30 29 28 27 27 27 27 27 27 26 26 26 25 25 26 25 25 24 24 23 22 22 20 19 19 17 14 16 16 14 14 16 14 9 4 2 3 8 8 4 11 14 5 6 15 18 18 21 26 28 27 27 27 27 28 27 27 27 26
13 15 17 18 19 19 19 19 20 20 20 20 20 20 22 23 24 27 29 32 33 30 29 31 32 32 31 30 30 30 29 29 29 29 29 28 28 28 28 28 28 28 27 27 27 26 25 24 23 22 22 21 19 20 19 16 15 16 15 11 8 7 6 6 4 4 10 7 5 14 17 14 20 26 25 24 25 27 28 28 30 31 30 30 29
13 16 18 19 19 20 20 20 20 21 21 21 20 20 22 25 27 31 33 34 34 32 30 31 31 30 31 31 30 30 29 29 28 28 28 27 27 27 27 27 27 27 27 27 27 25 25 24 24 24 24 24 23 22 21 19 18 17 16 14 13 12 10 8 5 5 5 5 12 16 16 22 27 21 18 22 25 25 27 29 29 29 29 28 27
14 17 19 20 20 21 21 22 22 23 23 23 23 23 24 26 29 32 34 34 33 32 30 30 29 29 29 29 29 28 28 27 27 26 26 25 25 25 25 25 25 25 24 24 23 22 22 22 22 22 22 22 22 21 20 20 18 17 16 16 15 14 12 9 8 9 5 4 7 9 18 30 25 18 22 24 24 26 27 27 26 26 25 25 24
15 18 20 21 21 22 22 23 24 24 24 23 23 24 25 26 28 30 32 32 31 30 29 28 27 27 28 28 27 27 26 25 25 24 24 24 23 23 23 23 23 22 22 21 21 20 20 19 19 19 18 19 18 18 18 17 16 15 15 15 15 14 9 7 8 10 6 3 5 7 16 21 17 23 32 27 27 31 26 24 25 24 23 23 22
16 18 21 21 22 22 23 24 24 24 24 23 23 24 24 25 26 27 29 30 28 27 26 26 25 25 26 26 25 25 25 24 23 23 22 22 21 21 21 21 20 20 20 20 19 19 18 17 16 16 16 16 15 15 14 14 13 13 13 14 14 12 8 6 8 8 6 4 6 7 13 19 17 23 31 33 33 31 25 24 24 21 22 23 22
Wind_Direction
176 171 171 171 168 167 177 175 172 177 177 173 166 167 163 160 158 153 146 135 130 128 124 119 117 116 115 114 115 112 110 108 102 97 93 90 86 82 86 93 90 93 91 83 84 82 79 78 75 72 71 71 73 79 81 83 89 94 95 91 89 87 89 93 91 91 92 90 85 83 81 73 71 74 75 74 75 77 78 79 80 77 72 72 71
175 173 173 173 172 168 176 178 174 180 179 174 170 170 167 166 165 160 151 141 135 133 127 124 121 119 118 115 116 112 110 110 104 100 99 103 99 91 95 93 84 87 88 89 90 86 81 77 76 78 77 76 78 80 81 81 85 89 94 93 91 90 90 94 97 97 96 93 88 88 87 79 73 72 75 76 78 77 77 78 75 70 69 71 70
173 175 175 175 175 170 176 181 178 181 179 176 175 173 170 171 170 168 159 148 143 137 130 128 126 123 122 120 120 117 114 112 109 105 100 112 110 99 98 90 88 89 86 88 86 81 76 70 68 72 75 75 75 71 71 71 74 78 84 92 94 91 90 95 99 101 100 94 90 88 86 82 76 73 75 77 78 75 73 79 75 67 66 68 71
175 176 176 177 178 175 176 182 184 183 182 179 178 177 174 174 173 174 168 157 151 145 137 134 131 129 126 124 123 121 118 112 111 106 101 110 104 96 94 89 96 98 91 85 79 75 64 59 57 53 56 63 70 66 63 61 61 59 63 77 88 95 92 94 97 96 95 95 93 87 82 80 76 74 74 74 73 72 69 73 75 70 66 67 70
178 178 177 178 180 179 177 181 186 185 184 181 180 182 181 180 178 179 174 165 159 153 146 140 136 137 134 130 127 123 120 113 112 107 105 106 103 97 86 85 94 98 97 86 74 69 53 40 40 32 30 45 58 57 54 52 50 44 45 57 64 89 97 96 94 86 85 90 92 87 82 77 75 73 70 71 69 69 67 65 68 70 66 63 66
180 180 179 180 182 182 178 181 188 185 184 185 183 184 188 187 184 182 176 169 162 157 152 149 146 144 140 136 132 126 123 120 118 110 107 107 116 109 86 87 89 93 94 80 69 68 50 20 15 19 21 13 4 1 2 11 18 20 26 35 39 79 111 113 98 81 83 89 90 87 85 80 78 76 71 72 68 67 68 65 62 62 62 57 59
182 181 181 182 184 185 181 182 189 188 184 187 187 187 191 191 188 186 179 172 166 161 157 159 156 149 146 144 139 133 129 125 121 116 109 110 129 122 98 94 88 96 89 71 65 60 41 15 2 13 21 8 350 331 318 320 331 340 346 342 323 204 143 149 128 82 90 96 89 84 84 81 79 78 74 75 71 66 65 64 60 58 56 51 50
178 184 185 185 187 187 184 183 189 190 188 189 191 192 193 197 193 188 182 176 173 167 166 172 165 156 152 152 148 143 137 131 128 127 116 107 130 130 111 104 99 96 84 73 55 29 18 14 6 12 19 15 7 349 327 313 318 328 328 321 295 233 193 179 182 101 106 114 93 85 81 75 75 76 72 71 70 66 60 57 54 53 50 44 42
174 184 189 189 190 190 186 185 191 193 194 194 195 197 196 202 201 194 188 181 181 173 174 182 171 162 159 160 156 152 150 147 141 124 105 97 120 127 121 119 111 97 87 76 45 20 13 14 11 14 14 8 5 359 347 327 318 327 327 320 297 230 199 185 186 155 124 134 104 88 80 67 67 73 71 70 68 61 57 50 45 48 46 35 31
171 182 191 193 193 192 190 188 193 196 197 199 199 200 199 203 205 202 198 193 191 180 181 185 179 169 162 164 163 158 157 149 138 117 78 67 100 119 124 115 109 102 86 70 51 37 26 28 20 3 358 354 353 352 352 345 333 333 331 329 316 205 185 181 178 167 144 144 112 91 79 58 60 72 71 62 56 50 51 45 41 48 47 38 32
172 181 189 194 196 195 194 192 194 197 197 200 202 201 203 206 209 208 206 207 199 192 194 188 185 181 167 164 161 155 152 147 155 137 63 50 89 116 118 112 112 100 82 73 60 45 27 23 11 350 347 345 343 342 348 352 350 353 355 358 11 109 162 174 178 178 169 152 111 99 77 54 59 67 57 51 51 49 53 47 45 52 51 45 38
173 182 186 192 198 199 198 196 196 199 200 201 204 204 205 208 212 215 215 213 206 206 208 195 189 188 181 175 174 162 163 181 194 197 53 49 94 120 122 128 117 102 90 74 40 30 15 356 348 346 345 344 343 341 347 357 3 17 24 26 35 70 130 163 180 190 191 171 136 125 79 52 60 63 47 44 45 44 47 48 49 56 58 32 25
172 181 186 192 198 203 204 202 200 201 205 204 208 208 207 211 213 216 218 215 209 208 208 200 192 192 191 187 202 196 197 215 209 216 128 65 101 130 140 148 123 100 75 15 359 4 3 350 339 341 347 351 354 352 351 358 13 30 36 41 44 60 96 133 165 194 205 189 167 147 108 73 76 72 48 30 30 28 26 36 40 40 45 8 18
167 184 189 196 199 206 209 209 207 204 209 209 211 213 212 215 217 220 220 218 214 207 205 204 197 196 196 193 207 209 215 230 226 225 200 133 129 149 161 153 121 90 39 13 359 1 5 347 333 337 346 351 353 354 354 353 11 34 40 47 50 61 78 98 123 171 185 162 151 142 133 129 104 89 64 30 23 21 6 6 19 23 43 26 43
150 186 192 202 201 207 212 214 213 209 213 214 215 219 217 219 223 226 225 224 220 216 212 209 206 202 203 202 208 214 224 237 239 235 212 186 168 169 174 154 124 83 30 18 5 7 7 336 328 333 340 344 346 348 350 349 2 28 39 46 51 62 72 88 106 127 122 131 142 149 152 151 131 100 43 356 360 358 349 343 349 11 84 46 28
147 174 191 208 207 208 213 216 218 215 215 217 221 223 220 220 225 228 229 231 227 228 224 218 217 211 211 212 213 221 230 241 246 243 233 208 188 186 179 166 154 94 37 22 14 10 355 336 328 329 334 340 345 342 340 345 356 19 31 40 45 54 66 83 107 145 164 183 178 177 169 162 153 117 18 303 347 348 339 338 339 335 252 241 317
152 174 190 205 212 214 215 217 221 220 218 218 223 226 224 221 225 228 228 232 233 235 232 224 222 219 219 218 220 227 234 242 250 250 239 221 200 198 192 186 178 107 32 5 359 359 353 344 335 332 334 339 345 340 332 339 347 14 25 34 39 43 50 62 90 166 200 212 212 211 196 187 183 155 119 239 309 332 327 328 335 322 296 258 266
101 180 200 207 214 220 222 222 223 223 223 221 223 227 228 223 223 228 228 229 232 234 234 230 228 225 223 224 225 229 238 241 250 255 241 233 219 207 204 202 194 172 356 340 340 350 354 347 339 335 336 338 344 342 327 326 333 5 22 28 31 35 38 45 58 122 211 225 225 224 218 211 210 202 180 201 261 309 335 320 324 323 319 299 268
62 104 206 216 220 223 226 229 230 228 227 225 226 228 230 229 225 227 230 229 231 234 235 233 233 230 226 228 230 232 240 242 247 251 242 237 231 228 223 223 234 223 290 324 332 347 351 346 339 335 337 339 345 345 327 318 322 342 8 21 23 26 27 30 37 35 313 242 233 230 225 219 222 223 228 229 243 275 308 307 310 314 315 308 284
71 73 191 216 222 225 227 229 232 233 232 230 229 229 231 234 231 229 230 231 231 233 236 237 237 236 233 231 233 237 241 245 247 246 245 239 235 253 244 233 238 226 270 305 316 337 344 343 339 334 339 343 346 346 328 317 312 320 347 360 12 16 19 21 21 19 10 327 258 245 234 226 229 233 254 259 266 281 288 297 305 310 310 310 304
55 43 213 227 221 222 227 229 231 231 234 234 232 231 231 233 237 237 235 236 234 232 234 237 238 238 238 237 237 241 244 249 249 249 254 250 242 253 255 249 238 230 265 295 310 328 339 339 339 338 340 344 349 348 330 314 305 295 314 327 346 358 9 11 4 358 351 345 321 279 253 243 238 240 276 281 279 283 287 297 304 310 314 317 322
360 360 305 265 238 227 224 227 231 232 231 233 234 233 232 232 234 238 240 241 239 238 239 237 238 238 238 241 242 242 245 248 249 251 254 255 251 241 254 254 243 251 267 286 310 323 340 342 340 340 341 342 347 351 338 311 299 288 282 289 298 315 347 351 347 340 333 336 332 310 276 260 248 248 265 277 284 289 296 306 311 315 316 321 331
8 359 333 299 274 253 236 228 227 231 233 231 233 234 233 231 229 233 242 248 246 244 246 243 239 239 239 241 243 243 245 245 247 252 254 256 253 241 252 246 239 254 256 272 308 313 329 337 339 340 341 341 342 349 348 326 300 292 284 278 279 282 311 329 330 327 329 333 328 318 294 274 258 261 274 288 299 305 315 324 325 327 324 333 351
15 8 353 325 291 268 255 243 230 225 229 232 232 234 234 235 231 228 232 243 249 247 251 254 249 245 244 244 247 249 247 243 244 247 252 258 254 247 245 238 246 262 254 266 289 294 318 332 341 343 341 339 337 344 351 343 316 295 288 283 279 279 288 310 318 316 319 324 322 318 302 288 269 270 298 311 314 315 329 341 334 340 341 347 6
18 13 5 348 311 276 260 251 243 230 224 228 229 232 233 235 238 236 233 233 239 242 246 250 250 253 249 246 251 253 249 245 243 243 248 256 257 255 240 234 249 260 251 254 262 280 317 327 340 344 339 337 336 337 346 349 336 310 292 288 286 284 289 298 306 306 307 308 309 311 302 296 281 277 296 316 321 314 325 341 335 335 345 351 1
25 20 14 2 341 299 267 252 250 240 227 222 226 233 234 233 236 241 246 245 240 240 245 243 240 246 247 244 246 249 249 247 246 242 241 248 253 252 242 240 247 248 243 238 236 272 309 316 332 340 336 335 334 334 340 346 344 329 306 293 290 290 293 296 300 298 296 295 293 296 294 292 287 283 280 286 311 312 318 333 332 321 330 338 343
26 25 21 12 358 338 292 259 248 245 233 221 223 232 234 236 238 239 245 250 243 234 248 250 240 244 248 246 246 249 249 249 251 242 233 246 254 250 246 243 242 237 229 229 242 266 297 311 332 340 337 333 330 331 338 341 342 339 323 306 298 294 295 295 296 292 288 287 284 284 284 284 282 281 276 271 282 302 314 320 321 318 311 315 322
26 26 27 26 19 19 4 288 240 238 229 216 216 224 230 235 238 244 246 251 254 247 261 270 259 254 249 242 245 251 247 247 251 241 235 250 250 251 258 251 247 239 223 224 243 259 287 305 333 338 332 330 328 330 334 336 337 337 333 321 308 302 300 298 294 289 284 280 280 279 279 280 279 278 277 269 263 269 303 310 306 308 308 305 306
27 26 29 34 37 40 43 50 136 195 203 195 192 204 217 227 231 240 250 270 275 281 286 288 291 281 271 256 252 256 250 249 248 238 238 252 250 250 262 269 268 251 234 234 239 253 280 284 316 323 314 326 335 334 329 329 331 331 331 326 316 308 303 300 296 289 284 279 277 277 279 281 280 280 278 276 268 257 279 306 301 296 300 301 296
29 30 34 39 49 54 57 65 88 119 152 159 158 175 194 210 230 242 262 289 292 314 292 286 301 294 299 303 289 285 264 257 255 245 240 250 259 249 253 277 281 267 256 254 245 249 269 271 296 305 308 338 342 336 325 323 327 327 328 325 319 313 303 299 296 290 285 281 278 275 277 282 282 283 280 278 278 261 260 292 304 294 292 297 294
37 40 43 47 57 63 67 71 81 93 106 121 131 143 150 158 161 166 213 267 305 335 300 279 309 311 316 325 328 348 304 274 270 270 255 262 275 260 258 271 279 274 265 259 246 240 249 270 291 295 317 347 338 333 324 324 328 326 327 325 323 317 308 302 298 294 289 286 284 281 280 283 282 285 284 280 279 267 256 262 301 300 287 288 289
47 49 53 59 67 72 75 79 85 94 101 107 115 121 121 127 132 141 166 142 119 136 173 278 305 312 321 323 342 336 288 278 277 304 313 298 288 278 276 275 279 272 259 258 249 238 242 272 288 285 301 343 333 331 327 334 341 337 334 330 327 323 315 307 299 295 292 291 290 290 290 289 286 285 287 285 282 276 264 257 268 286 279 274 273
54 59 65 71 76 81 85 90 96 101 105 109 114 117 118 120 120 117 118 105 87 98 102 51 26 6 333 302 307 307 279 276 286 275 307 317 316 304 300 297 283 258 257 263 252 244 255 282 291 281 253 278 308 315 323 339 349 348 345 340 336 333 329 321 309 300 293 291 289 292 295 293 291 289 289 289 286 282 275 266 260 261 267 270 267
56 67 73 78 83 88 92 97 101 105 107 111 114 115 113 111 110 104 103 106 91 79 79 71 61 50 43 41 332 322 322 325 315 292 299 316 314 300 296 303 297 279 276 272 255 254 269 284 290 278 258 263 279 291 302 317 330 337 339 337 339 341 342 339 332 322 308 298 292 293 296 295 294 292 292 292 290 287 283 277 269 265 262 261 261
61 71 77 83 88 92 95 98 101 105 107 109 110 110 111 110 109 106 102 102 98 86 79 74 67 60 58 64 60 42 30 5 317 303 303 292 287 288 288 289 294 296 290 278 264 263 273 282 280 270 267 272 282 291 299 309 318 323 327 329 333 338 342 343 342 337 327 317 309 305 303 300 298 296 296 295 294 293 291 287 280 275 269 264 263
66 75 82 89 94 95 97 100 101 103 104 106 106 106 108 108 106 104 103 100 95 87 81 77 75 72 70 70 68 64 60 53 44 14 339 304 291 300 310 305 295 292 289 284 278 276 281 284 281 274 271 275 282 285 291 305 311 315 319 320 323 328 333 336 335 335 333 329 325 321 315 310 305 302 302 299 298 298 297 295 290 286 281 276 272
70 80 86 92 96 99 101 102 102 103 104 105 106 106 106 106 104 101 98 95 91 88 85 83 81 77 74 72 70 68 66 64 62 59 63 68 59 44 26 359 337 322 308 303 303 303 300 294 293 291 288 290 293 294 303 312 316 317 317 318 319 321 323 325 324 325 327 328 328 328 325 319 313 307 305 303 302 301 300 298 296 294 291 288 284
76 84 88 93 98 101 104 105 105 106 106 106 106 106 105 103 101 99 97 94 92 90 87 83 79 75 73 70 67 64 64 66 66 67 69 70 70 69 64 50 33 35 44 34 18 354 346 342 332 327 318 312 314 321 324 322 320 319 318 319 319 319 322 323 321 319 319 322 326 328 327 325 321 313 308 306 305 305 302 301 299 299 297 296 294
83 89 93 97 101 103 106 108 110 110 110 111 110 108 107 102 98 98 97 93 90 87 84 80 77 74 71 68 65 64 65 67 68 69 68 69 69 67 66 64 59 63 68 63 59 54 47 36 22 15 6 1 354 344 337 328 320 317 317 317 317 317 318 318 319 320 321 322 322 326 330 329 327 322 317 314 310 308 304 303 303 302 302 300 300
88 93 99 102 104 105 108 109 110 112 114 115 114 113 110 106 102 99 93 88 86 85 82 79 76 74 72 69 66 65 65 64 64 62 61 61 62 63 64 64 63 63 63 64 64 59 53 48 44 35 27 28 21 10 359 345 331 323 320 319 316 314 313 315 321 326 329 334 336 337 336 334 337 339 335 331 325 320 315 313 310 307 306 304 302
90 95 100 102 103 106 109 108 109 113 114 113 113 112 109 107 104 98 92 88 87 87 84 80 78 76 74 72 69 67 64 61 58 55 55 56 59 62 63 63 61 59 60 63 63 60 53 46 46 43 39 38 35 27 13 3 357 345 333 327 324 323 324 321 324 346 354 345 339 337 339 344 347 348 346 347 345 341 338 335 330 326 320 316 311
87 92 96 98 102 106 108 107 109 112 111 111 111 107 105 105 102 98 95 91 89 88 86 83 83 82 79 76 74 72 70 68 65 62 62 61 61 61 61 61 60 60 64 64 60 57 53 48 48 49 50 51 52 41 26 26 17 354 336 325 329 336 337 329 329 351 341 333 334 340 344 345 345 348 353 353 349 345 343 342 339 337 334 330 325
88 93 96 98 102 104 105 106 107 107 106 107 108 106 105 105 103 100 98 94 90 89 89 88 86 85 83 81 79 77 76 74 72 70 68 66 64 63 61 60 59 56 57 56 53 52 49 47 46 50 57 60 61 48 35 39 26 7 351 329 339 338 340 18 350 331 329 335 347 346 339 341 346 348 347 343 340 339 338 338 337 336 334 332 328
91 94 97 100 102 104 105 106 107 106 107 107 106 107 107 106 105 102 100 97 94 94 93 90 87 86 84 82 80 79 78 76 74 72 70 69 66 65 64 62 60 57 54 53 52 49 47 45 43 43 47 52 56 48 42 45 38 31 21 314 323 336 349 9 335 327 339 353 340 337 339 345 344 340 340 339 338 336 335 335 335 333 332 329 325
90 93 97 101 104 108 110 111 112 110 110 110 110 111 111 110 108 106 103 99 95 93 89 85 84 84 82 81 80 79 79 78 76 75 73 73 71 70 69 67 65 62 59 58 57 54 51 48 45 43 45 48 53 53 51 52 47 47 49 26 339 345 337 333 329 324 340 336 336 351 351 340 338 337 336 333 331 330 330 331 330 329 328 326 324
91 95 101 106 110 114 117 118 117 116 115 115 116 117 115 115 115 111 105 99 91 85 84 85 85 85 84 84 83 82 81 80 79 78 77 76 75 74 73 72 71 68 66 65 63 60 56 53 50 49 49 48 48 52 51 48 47 47 51 60 57 17 324 327 334 317 321 332 358 356 335 334 335 331 329 329 329 329 329 328 326 325 323 322 321
95 102 107 111 114 117 119 121 121 122 123 123 125 125 122 120 116 109 104 100 96 91 91 92 91 91 90 89 87 84 83 82 80 79 78 77 76 76 75 74 73 71 70 68 66 63 61 59 58 56 56 53 52 53 48 41 42 41 41 48 42 26 5 346 351 325 324 331 328 326 331 334 329 328 331 335 334 332 330 327 325 323 321 320 319
104 110 112 113 116 117 118 119 120 122 125 127 129 128 123 117 111 106 103 102 102 101 99 97 96 96 94 90 88 86 84 83 81 80 79 78 77 76 75 74 74 72 70 69 67 66 65 63 61 60 59 57 56 56 52 47 44 41 38 39 34 29 27 23 22 359 331 304 318 326 327 326 328 334 340 336 334 333 330 328 327 326 325 322 320
112 113 114 116 118 119 120 120 120 120 123 125 124 120 116 112 109 107 105 105 105 104 103 101 99 98 95 92 90 88 86 83 82 80 79 78 77 76 75 74 73 72 71 70 68 66 64 62 59 58 58 57 57 56 55 51 47 43 40 40 37 36 36 33 18 4 345 288 317 324 320 326 332 334 332 331 331 331 329 331 334 333 332 330 327
116 116 117 119 120 121 122 120 118 119 119 119 117 114 113 111 110 110 109 109 109 108 107 103 101 99 96 94 91 89 86 84 82 79 78 76 75 75 73 72 72 71 70 69 67 64 62 60 58 56 56 56 54 53 53 52 48 44 40 38 36 34 30 19 5 357 348 295 301 303 311 322 324 321 326 328 325 327 330 333 335 337 339 338 336
121 121 120 120 121 121 120 117 115 116 116 116 114 113 113 111 111 112 112 114 114 112 108 103 101 99 96 94 91 89 86 84 82 79 76 74 73 71 70 69 68 66 64 61 59 57 55 54 53 51 50 50 48 46 45 44 41 38 35 34 32 31 27 4 349 343 333 300 299 297 301 310 307 307 319 323 322 325 328 328 332 337 339 339 340